カタログに戻る

CZ-4C R/B

運用中PO
NORAD 57959·ROCKET BODY·🇨🇳 China

打ち上げ Sep 26, 2023 から Jiuquan Satellite Launch Center

Loading…

次のパス (今後24時間)

TLE

最新Source: Space-Track

元期: Sep 14, 2026, 12:46 UTC

1 57959U 23149B   26257.53205958  .00002041  00000-0  15074-3 0  9990
2 57959  98.1844 270.7146 0111651  71.7523 289.5812 14.99622614161993

AllMySatでCZ-4C R/Bをリアルタイム追跡

Download on the App Store